This is the latest recevied weather packets stored in our database for station/object WA1OUI. If no packets are shown the sender has not sent any weather packets the latest 10 day(s).
| Time | Temp. | Humidity | Pressure | Rain* | Wind** | Luminosity | Snow |
|---|---|---|---|---|---|---|---|
| 1777933641 | 19.44° C | 41% | 1005.8 hPa | 0 mm | - | 28 W/m² | - |
| 1777933337 | 19.44° C | 40% | 1005.8 hPa | 0 mm | - | 29 W/m² | - |
| 1777933035 | 20° C | 40% | 1006.1 hPa | 0 mm | - | 31 W/m² | - |
| 1777932732 | 20° C | 39% | 1006 hPa | 0 mm | - | 34 W/m² | - |
| 1777932428 | 20.56° C | 37% | 1005.9 hPa | 0 mm | - | 35 W/m² | - |
| 1777932126 | 21.11° C | 34% | 1005.9 hPa | 0 mm | - | 38 W/m² | - |
| 1777931822 | 21.67° C | 31% | 1005.9 hPa | 0 mm | - | 48 W/m² | - |
| 1777931519 | 21.67° C | 29% | 1005.9 hPa | 0 mm | - | 50 W/m² | - |
| 1777931215 | 21.67° C | 30% | 1006 hPa | 0 mm | - | 74 W/m² | - |
| 1777930912 | 21.67° C | 29% | 1006.1 hPa | 0 mm | - | 93 W/m² | - |
| 1777930608 | 21.67° C | 29% | 1006.1 hPa | 0 mm | - | 102 W/m² | - |
| 1777930305 | 21.67° C | 29% | 1006.1 hPa | 0 mm | - | 84 W/m² | - |
| 1777930001 | 21.67° C | 31% | 1006.1 hPa | 0 mm | - | 63 W/m² | - |
| 1777929698 | 22.22° C | 28% | 1005.9 hPa | 0 mm | - | 48 W/m² | - |
| 1777929396 | 22.22° C | 28% | 1006 hPa | 0 mm | - | 59 W/m² | - |
| 1777929092 | 22.22° C | 27% | 1006 hPa | 0 mm | - | 67 W/m² | - |
| 1777928790 | 22.78° C | 28% | 1006.2 hPa | 0 mm | - | 65 W/m² | - |
| 1777928486 | 22.78° C | 27% | 1006.1 hPa | 0 mm | - | 111 W/m² | - |
| 1777928184 | 22.78° C | 27% | 1006.1 hPa | 0 mm | - | 125 W/m² | - |
| 1777927881 | 23.33° C | 27% | 1006.2 hPa | 0 mm | - | 108 W/m² | - |
| 1777927580 | 23.33° C | 28% | 1006.1 hPa | 0 mm | - | 187 W/m² | - |
| 1777927278 | 23.33° C | 27% | 1006.3 hPa | 0 mm | - | 355 W/m² | - |
| 1777926976 | 23.33° C | 27% | 1006.1 hPa | 0 mm | - | 324 W/m² | - |
| 1777926673 | 23.33° C | 26% | 1006.1 hPa | 0 mm | - | 378 W/m² | - |
| 1777926368 | 23.33° C | 26% | 1006.1 hPa | 0 mm | - | 376 W/m² | - |
* Rain latest hour (hover to see other rain measurements)
** Current wind speed in m/s (hover to see current wind gust speed)